Weather History for KPRB - March, 2014

Change the Weather History Date:

Saturday, March 29, 2014

  Actual Average Record
Temperature  
Mean Temperature 58 °F 54 °F  
Max Temperature 72 °F 68 °F 88 °F (1968)
Min Temperature 43 °F 40 °F 26 °F (1975)
Degree Days  
Heating Degree Days 7 11  
Month to date heating degree days 208 345  
Since 1 July heating degree days 1913 2438  
Cooling Degree Days 0 0  
Month to date cooling degree days 0 0  
Year to date cooling degree days 0 0  
Growing Degree Days 6 (Base 50)    
Moisture  
Dew Point 47 °F    
Average Humidity 68    
Maximum Humidity 96    
Minimum Humidity 40    
Precipitation  
Precipitation 0.35 in 0.06 in 0.66 in (1954)
Month to date precipitation 1.17 2.39  
Year to date precipitation 3.83 7.73  
Since 1 July precipitation 4.29  
Sea Level Pressure  
Sea Level Pressure 30.06 in    
Wind  
Wind Speed 6 mph (West)    
Max Wind Speed 18 mph    
Max Gust Speed 23 mph    
Visibility 9 miles    
Events Rain    
T = Trace of Precipitation, MM = Missing Value Source: NWS Daily Summary

Daily Weather History Graph

Daily Weather History Graph

Search for Another Location

Airport or City:

Trip Planner

Search our weather history database for the weather conditions in past years. The results will help you decide how hot, cold, wet, or windy it might be!

Date:

Astronomy

Mar. 29, 2014 Rise Set
Actual Time 6:53 AM PDT 7:21 PM PDT
Civil Twilight 6:27 AM PDT 7:47 PM PDT
Nautical Twilight 5:57 AM PDT 8:17 PM PDT
Astronomical Twilight 5:26 AM PDT 8:48 PM PDT
Moon 6:02 AM PDT (3/29) 6:33 PM PDT (3/29)
Length of Visible Light 13h 19m
Length of Day
12h 28m
Waning Crescent, 1% of the Moon is Illuminated
Mar 29
Waning Crescent
Mar 30
New
Apr 7
First Quarter
Apr 15
Full
Apr 22
Last Quarter

Hourly Weather History & Observations

Time (PDT) Temp. Windchill Dew Point Humidity Pressure Visibility Wind Dir Wind Speed Gust Speed Precip Events Conditions
12:53 AM 53.1 °F - 46.9 °F 80% 30.16 in 10.0 mi WNW 9.2 mph - N/A   Clear
1:53 AM 50.0 °F - 46.0 °F 86% 30.15 in 10.0 mi Calm Calm - N/A   Clear
2:53 AM 48.9 °F - 45.0 °F 86% 30.14 in 10.0 mi Calm Calm - N/A   Clear
3:53 AM 46.9 °F - 44.1 °F 90% 30.13 in 10.0 mi Calm Calm - N/A   Clear
4:53 AM 45.0 °F - 42.1 °F 90% 30.13 in 10.0 mi Calm Calm - N/A   Clear
5:53 AM 43.0 °F 41.3 °F 41.0 °F 93% 30.13 in 10.0 mi SSE 3.5 mph - N/A   Clear
6:53 AM 43.0 °F 41.3 °F 39.9 °F 89% 30.13 in 10.0 mi East 3.5 mph - N/A   Clear
7:53 AM 45.0 °F - 42.1 °F 90% 30.14 in 10.0 mi Calm Calm - N/A   Clear
8:53 AM 48.9 °F - 44.1 °F 83% 30.13 in 10.0 mi Calm Calm - N/A   Clear
9:53 AM 53.1 °F - 45.0 °F 74% 30.13 in 10.0 mi Calm Calm - N/A   Clear
10:53 AM 59.0 °F - 46.0 °F 62% 30.12 in 10.0 mi North 3.5 mph - N/A   Clear
11:53 AM 64.9 °F - 45.0 °F 48% 30.09 in 10.0 mi Calm Calm - N/A   Clear
12:53 PM 70.0 °F - 44.1 °F 39% 30.07 in 10.0 mi Variable 3.5 mph - N/A   Clear
1:53 PM 70.0 °F - 48.0 °F 46% 30.03 in 10.0 mi South 13.8 mph - N/A   Partly Cloudy
2:53 PM 70.0 °F - 48.9 °F 47% 30.01 in 10.0 mi SSW 13.8 mph - N/A   Clear
3:53 PM 68.0 °F - 48.0 °F 49% 29.99 in 10.0 mi SSW 15.0 mph - N/A   Clear
4:53 PM 66.0 °F - 48.0 °F 52% 29.98 in 10.0 mi WSW 10.4 mph - N/A   Clear
5:53 PM 63.0 °F - 48.9 °F 60% 29.98 in 10.0 mi WSW 13.8 mph - N/A   Clear
6:53 PM 61.0 °F - 48.9 °F 64% 29.99 in 10.0 mi WSW 9.2 mph - N/A   Clear
7:39 PM 59.0 °F - 50.0 °F 72% 29.99 in 10.0 mi WSW 6.9 mph - N/A   Mostly Cloudy
7:53 PM 59.0 °F - 50.0 °F 72% 29.99 in 10.0 mi WSW 4.6 mph - N/A   Overcast
8:53 PM 59.0 °F - 50.0 °F 72% 29.99 in 10.0 mi WSW 4.6 mph - N/A   Overcast
9:41 PM 54.0 °F - 53.1 °F 97% 30.01 in 5.0 mi NW 11.5 mph - 0.03 in Rain Light Rain
9:53 PM 54.0 °F - 52.0 °F 93% 30.01 in 7.0 mi NW 12.7 mph - 0.04 in Rain Light Rain
10:12 PM 54.0 °F - 52.0 °F 93% 30.02 in 6.0 mi NW 9.2 mph - 0.05 in Rain Rain
10:21 PM 54.0 °F - 52.0 °F 93% 30.02 in 7.0 mi West 5.8 mph - 0.06 in Rain Light Rain
10:53 PM 54.0 °F - 52.0 °F 93% 30.02 in 5.0 mi NW 9.2 mph - 0.12 in Rain Rain
11:07 PM 52.0 °F - 50.0 °F 93% 30.03 in 6.0 mi NW 18.4 mph - 0.04 in Rain Rain
11:14 PM 52.0 °F - 48.9 °F 89% 30.03 in 6.0 mi NW 15.0 mph - 0.05 in Rain Rain
11:28 PM 51.1 °F - 48.0 °F 89% 30.03 in 6.0 mi NW 11.5 mph - 0.09 in Rain Rain
11:53 PM 51.1 °F - 48.0 °F 89% 30.02 in 10.0 mi WNW 8.1 mph - 0.12 in Rain Light Rain